Regional Weather Roundup
Issued by NWS

Home | Current Version | Previous Version | Graphics & Text | Print | Product List | Glossary On
Versions: 1 2 3 4 5 6 7 8 9 10 11 12 13 14 15 16 17 18 19 20 21 22 23 24 25 26 27 28 29 30 31 32 33 34 35 36 37 38 39 40 41 42 43 44 45 46 47 48 49 50
000
ASUS43 KTOP 231459
RWRKS

WEATHER ROUNDUP FOR KANSAS
NATIONAL WEATHER SERVICE GOODLAND KS
1000 AM CDT SAT JUL 23 2016

NOTE:  "FAIR" INDICATES FEW OR NO CLOUDS BELOW 12,000 FEET WITH NO
SIGNIFICANT WEATHER AND/OR OBSTRUCTIONS TO VISIBILITY.

KSZ001>006-013>018-027>032-041>047-231600-
NORTHWEST KANSAS

CITY           SKY/WX    TMP DP  RH WIND       PRES   REMARKS
GOODLAND       SUNNY     80  60  50 S13       29.95S
HAYS           CLOUDY    86  63  45 S16       29.89F
HILL CITY      CLOUDY    84  68  58 S13       29.88F
RUSSELL        PTSUNNY   85  64  49 S21       29.88F
$$

KSZ061>065-074>080-084>089-231600-
SOUTHWEST KANSAS

CITY           SKY/WX    TMP DP  RH WIND       PRES   REMARKS
DODGE CITY     MOSUNNY   83  62  49 S14       29.95F
ELKHART          N/A     86  56  36 S10         N/A
GARDEN CITY    MOSUNNY   81  60  48 S12       29.93F
GREAT BEND     SUNNY     84  64  51 S13       29.92F
LIBERAL        SUNNY     88  59  37 SW17      29.98F
$$

KSZ066>073-081>083-090>101-231600-
SOUTHEAST KANSAS

CITY           SKY/WX    TMP DP  RH WIND       PRES   REMARKS
CHANUTE        SUNNY     88  72  58 SW8       29.99S
COFFEYVILLE    SUNNY     89  72  56 SW9       29.99S HX  96
HUTCHINSON     MOSUNNY   88  67  49 S8        29.96S
NEWTON         MOSUNNY   87  69  54 SW13      29.97F
PARSONS        SUNNY     88  73  61 SW7       30.01R HX  95
WICHITA INTL   PTSUNNY   88  68  51 S12       29.95F
WICHITA JABRA  PTSUNNY   86  69  56 S10       29.96F
WINFIELD       SUNNY     90  67  46 SW10      29.98F
$$

KSZ007>012-019>026-033>040-048>060-102>105-231600-
NORTHEAST KANSAS

CITY           SKY/WX    TMP DP  RH WIND       PRES   REMARKS
CONCORDIA      MOSUNNY   83  67  58 S15G25    29.87F
EMPORIA        MOSUNNY   87  72  60 S9        29.96F
LAWRENCE       CLOUDY    86  74  67 S8        29.94F
MANHATTAN      PTSUNNY   85  70  60 SW9       29.90F
OLATHE IND     CLOUDY    85  73  67 S9        29.98F
OLATHE EXE     MOSUNNY   83  72  69 VRB7      29.98F
SALINA         CLOUDY    88  68  51 S12       29.92F
TOPEKA BILLARD CLOUDY    86  72  62 S10       29.93F
TOPEKA FORBES  CLOUDY    86  73  65 S8        29.95F
$$




USA.gov is the U.S. government's official web portal to all federal, state and local government web resources and services.